Eielson Air Force Base, AK

12:23 AM AKST on February 11, 2016 (GMT -0900)
Eielson Air Force Base

Weather History for PAEI - March, 2014

Change the Weather History Date:

Saturday, March 15, 2014

  Actual Average Record
Temperature  
Mean Temperature 16 °F -  
Max Temperature 34 °F 20 °F 42 °F (1998)
Min Temperature 0 °F -7 °F -49 °F (1964)
Degree Days  
Heating Degree Days 49    
Moisture  
Dew Point 5 °F    
Average Humidity 66    
Maximum Humidity 81    
Minimum Humidity 56    
Precipitation  
Precipitation 0.00 in - - ()
Sea Level Pressure  
Sea Level Pressure 29.61 in    
Wind  
Wind Speed 5 mph (SW)    
Max Wind Speed 14 mph    
Max Gust Speed 28 mph    
Visibility 9 miles    
Events Snow    
Averages and records for this station are not official NWS values.
T = Trace of Precipitation, MM = Missing Value Source: NWS Daily Summary

Daily Weather History Graph

Daily Weather History Graph

Search for Another Location

Airport or City:

Trip Planner

Search our weather history database for the weather conditions in past years. The results will help you decide how hot, cold, wet, or windy it might be!

Date:

Astronomy

Mar. 15, 2014 Rise Set
Actual Time 8:06 AM AKDT 7:49 PM AKDT
Civil Twilight 7:17 AM AKDT 8:38 PM AKDT
Nautical Twilight 6:20 AM AKDT 9:36 PM AKDT
Astronomical Twilight 5:15 AM AKDT 10:41 PM AKDT
Moon 7:17 PM AKDT (3/15) 7:33 AM AKDT (3/15)
Length of Visible Light 13h 20m
Length of Day
11h 43m
Waxing Gibbous, 99% of the Moon is Illuminated
Mar 15
Waxing Gibbous
Mar 16
Full
Mar 23
Last Quarter
Mar 30
New
Apr 7
First Quarter

Hourly Weather History & Observations

Time (AKDT) Temp. Windchill Dew Point Humidity Pressure Visibility Wind Dir Wind Speed Gust Speed Precip Events Conditions
12:58 AM 31.5 °F - 17.2 °F 56% 29.21 in 10.0 mi Calm Calm - N/A   Clear
1:58 AM 22.8 °F - 16.2 °F 76% 29.24 in 10.0 mi Calm Calm - N/A   Clear
2:58 AM 32.0 °F 25.6 °F 19.2 °F 59% 29.27 in 10.0 mi Variable 6.9 mph - N/A   Clear
3:58 AM 21.2 °F 8.3 °F 10.0 °F 62% 29.39 in 10.0 mi WSW 13.8 mph 27.6 mph N/A   Partly Cloudy
4:58 AM 17.8 °F 9.6 °F 7.2 °F 63% 29.48 in 10.0 mi Variable 5.8 mph - N/A   Clear
5:22 AM 17.6 °F 8.2 °F 6.8 °F 63% 29.48 in 9.0 mi Variable 6.9 mph - N/A Snow Light Snow
5:37 AM 17.6 °F 9.3 °F 6.8 °F 63% 29.49 in 9.0 mi South 5.8 mph - N/A Snow Light Snow
5:52 AM 15.8 °F 7.2 °F 6.8 °F 68% 29.50 in 10.0 mi Variable 5.8 mph - N/A   Scattered Clouds
5:58 AM 16.7 °F 8.3 °F 6.4 °F 64% 29.53 in 10.0 mi Variable 5.8 mph - 0.00 in   Scattered Clouds
6:13 AM 15.8 °F 8.6 °F 5.0 °F 62% 29.52 in 10.0 mi Variable 4.6 mph - N/A   Mostly Cloudy
6:28 AM 15.8 °F 5.1 °F 5.0 °F 62% 29.53 in 10.0 mi WSW 8.1 mph - N/A   Mostly Cloudy
6:58 AM 14.9 °F 6.1 °F 5.0 °F 65% 29.58 in 10.0 mi Variable 5.8 mph - N/A   Overcast
7:58 AM 14.0 °F 5.1 °F 4.8 °F 67% 29.62 in 10.0 mi Variable 5.8 mph - N/A   Overcast
8:58 AM 13.6 °F 3.5 °F 4.8 °F 68% 29.65 in 10.0 mi Variable 6.9 mph - N/A   Partly Cloudy
9:58 AM 12.6 °F 1.1 °F 4.3 °F 69% 29.70 in 10.0 mi WSW 8.1 mph - N/A   Scattered Clouds
10:28 AM 12.2 °F -1.0 °F 3.2 °F 67% 29.67 in 10.0 mi WSW 10.4 mph - N/A   Mostly Cloudy
10:58 AM 11.7 °F 2.3 °F 2.8 °F 68% 29.72 in 10.0 mi Variable 5.8 mph - N/A   Mostly Cloudy
11:19 AM 12.2 °F -0.2 °F 3.2 °F 67% 29.69 in 10.0 mi WSW 9.2 mph - N/A Snow Light Snow
11:43 AM 10.4 °F 0.8 °F 3.2 °F 73% 29.71 in 2.0 mi Variable 5.8 mph - N/A Snow Light Snow
11:59 AM 12.2 °F 6.1 °F 5.0 °F 73% 29.75 in 3.0 mi Variable 3.5 mph - N/A Snow Light Snow
12:10 PM 12.2 °F 2.9 °F 3.2 °F 67% 29.71 in 7.0 mi Variable 5.8 mph - N/A Snow Light Snow
12:47 PM 12.2 °F - 3.2 °F 67% 29.72 in 10.0 mi Variable 2.3 mph - N/A   Mostly Cloudy
12:58 PM 12.4 °F 4.6 °F 3.2 °F 67% 29.76 in 10.0 mi West 4.6 mph - 0.00 in   Mostly Cloudy
1:58 PM 14.4 °F 6.9 °F 2.8 °F 60% 29.75 in 10.0 mi WNW 4.6 mph - N/A   Partly Cloudy
2:58 PM 14.9 °F - 3.0 °F 59% 29.75 in 10.0 mi ENE 2.3 mph - N/A   Partly Cloudy
3:58 PM 16.0 °F - 3.4 °F 58% 29.74 in 10.0 mi Calm Calm - N/A   Scattered Clouds
4:58 PM 16.3 °F 7.8 °F 3.7 °F 58% 29.73 in 10.0 mi Variable 5.8 mph - N/A   Clear
5:58 PM 16.2 °F 6.5 °F 3.7 °F 58% 29.72 in 10.0 mi Variable 6.9 mph - N/A   Clear
6:58 PM 15.8 °F 7.2 °F 3.6 °F 59% 29.71 in 10.0 mi Variable 5.8 mph - N/A   Clear
7:58 PM 13.6 °F 7.7 °F 3.0 °F 63% 29.70 in 10.0 mi WNW 3.5 mph - N/A   Clear
8:58 PM 10.0 °F 3.6 °F 1.9 °F 70% 29.70 in 10.0 mi Variable 3.5 mph - N/A   Clear
9:58 PM -0.4 °F - -6.0 °F 77% 29.69 in 10.0 mi Calm Calm - N/A   Clear
10:58 PM -0.0 °F - -4.7 °F 81% 29.69 in 10.0 mi SE 2.3 mph - N/A   Clear
11:58 PM 1.2 °F - -4.0 °F 79% 29.69 in 10.0 mi SSW 2.3 mph - N/A   Clear